Location: Unspecified
(51.5147°N, 7.4673°E)
Time: 13:25:56
(UTC+01:00)

A-11 Canister half - Pass Details

Date: 20 February 2026
Orbit: 1513 x 1686 km, 47.2° (Epoch: 17 March)

Event Time Altitude Azimuth Distance (km) Brightness Sun altitude
Rises 20:40:29 0° 221° (SW) 4,932 12.0 -26.3°
Reaches altitude 10° 20:43:50 10° 215° (SW) 3,945 11.3 -26.8°
Maximum altitude 20:53:11 44° 148° (SSE) 2,186 9.4 -28.2°
Enters shadow 20:53:33 44° 143° (SE) 2,189 9.4 -28.2°
Drops below altitude 10° 21:02:23 10° 81° (E) 3,884 - -29.5°
Sets 21:05:39 0° 75° (ENE) 4,850 - -30.0°
